Location: Brunembert
(50.7122°N, 1.8935°E)
Time: 14:42:36
(UTC+00:00)

Cosmos 1500 Rocket - Pass Details

Date: 02 August 2021
Orbit: 602 x 632 km, 82.5° (Epoch: 23 September)

Event Time Altitude Azimuth Distance (km) Brightness Sun altitude
Exits shadow 20:51:09 14° 124° (SE) 1,756 5.2 -10.3°
Maximum altitude 20:53:31 20° 85° (E) 1,438 5.1 -10.6°
Drops below altitude 10° 20:56:48 10° 38° (NE) 2,016 6.3 -11.0°
Sets 20:59:30 0° 22° (NNE) 2,934 7.4 -11.3°
